Regional Weather Roundup
Issued by NWS

Home | Current Version | Previous Version | Graphics & Text | Print | Product List | Glossary On
Versions: 1 2 3 4 5 6 7 8 9 10 11 12 13 14 15 16 17 18 19 20 21 22 23 24 25 26 27 28 29 30 31 32 33 34 35 36 37 38 39 40 41 42 43 44 45 46 47 48 49 50
000
ASUS43 KMPX 291801
RWRMN
WEATHER ROUNDUP FOR MINNESOTA
NATIONAL WEATHER SERVICE TWIN CITIES/CHANHASSEN MN
100 PM CDT WED MAR 29 2017


NOTE: "FAIR" INDICATES FEW OR NO CLOUDS BELOW 12,000 FEET WITH NO
SIGNIFICANT WEATHER AND/OR OBSTRUCTIONS TO VISIBILITY. N/A MEANS
CURRENT SKY AND/OR WEATHER CONDITIONS ARE NOT AVAILABLE.

MNZ060>063-068>070-291900-
   Twin Cities Metro

CITY           SKY/WX    TMP DP  RH WIND       PRES   REMARKS
TWIN CITIES    CLOUDY    50  34  54 SE9       30.23F
6HR MIN TEMP:  45; 6HR MAX TEMP:  51;

ST PAUL        CLOUDY    50  35  56 SE6       30.24F
CRYSTAL        CLOUDY    50  32  50 E7        30.21F
BLAINE         CLOUDY    54  36  50 SE7       30.22F
LAKEVILLE      CLOUDY    46  37  71 E9        30.23S
EDEN PRAIRIE   CLOUDY    52  34  50 SE15      30.21F
6HR MIN TEMP:  44; 6HR MAX TEMP:  52;

SOUTH ST PAUL  CLOUDY    49  33  54 S6        30.23F
LAKE ELMO      FAIR      50  36  57 SE6       30.24F
$$
MNZ001>005-007-008-013>017-022>024-027-028-291900-
   Northwest Minnesota

CITY           SKY/WX    TMP DP  RH WIND       PRES   REMARKS
BEMIDJI        CLOUDY    47  30  53 SE8       30.18F
HALLOCK        SUNNY     52  45  76 S10       30.12F
ROSEAU         SUNNY     55  39  54 SE8       30.14F
WARROAD        SUNNY     48  37  66 N5        30.15F
THIEF RVR FALL CLOUDY    52  38  58 S8        30.15F
CROOKSTON      CLOUDY    54  43  66 SW8       30.14F
FOSSTON        CLOUDY    57  34  41 S9        30.16S
DETROIT LAKES  CLOUDY    50  32  50 SE10      30.17F
MOORHEAD       PTSUNNY   54  37  54 S13       30.15F
PARK RAPIDS    CLOUDY    47  29  49 SE8       30.18F
MAHNOMEN       FAIR      56  33  41 S10       30.15F
$$
MNZ006-009>011-018-025>026-291900-
   North Central Minnesota

CITY           SKY/WX    TMP DP  RH WIND       PRES   REMARKS
BAUDETTE       CLOUDY    51  30  44 SE14      30.17F
FLAG ISLAND    SUNNY     37  28  70 S7        30.17F
INTL FALLS     MOSUNNY   47  29  49 SE7       30.22F
6HR MIN TEMP:  32; 6HR MAX TEMP:  47;

WASKISH        MOSUNNY   55  32  41 SE8       30.18F
BIG FORK       CLOUDY    46  30  53 SE7       30.22F
LONGVILLE      CLOUDY    45  30  57 SE8       30.21F
GRAND RAPIDS   CLOUDY    43  30  60 SE8       30.24F
CRANE LAKE     CLOUDY    45  27  49 S6        30.27F
ORR            CLOUDY    45  25  45 CALM      30.22F
COOK           CLOUDY    45  28  53 SE6       30.25F
WALKER         FAIR      41  29  63 E6        30.20F
$$
MNZ012-019>021-037-291900-
   Northeast Minnesota

CITY           SKY/WX    TMP DP  RH WIND       PRES   REMARKS
DULUTH         CLOUDY    37  31  78 E16       30.28F
6HR MIN TEMP:  32; 6HR MAX TEMP:  38;

ELY            CLOUDY    43  27  52 SE13      30.27F
HIBBING        CLOUDY    41  29  62 SE13      30.25F
EVELETH        CLOUDY    42  23  45 SE9       30.27F
DULUTH HARBOR  CLOUDY    36  34  93 NE18      30.33F
TWO HARBORS    CLOUDY    39  32  75 E15       30.30F
G MARAIS ARPRT MOSUNNY   32  21  64 E9        30.33F WCI  24
$$
MNZ029>031-032-039>041-046>048-054>057-064-291900-
   West Central Minnesota

CITY           SKY/WX    TMP DP  RH WIND       PRES   REMARKS
FERGUS FALLS   CLOUDY    54  36  50 SE9       30.19F
WHEATON        CLOUDY    55  37  50 SE13      30.16F
MORRIS         CLOUDY    54  39  58 SE14      30.15F
ALEXANDRIA     CLOUDY    51  35  54 E10       30.17F
ELBOW LAKE     FAIR      54  36  51 SE10      30.16F
WADENA         CLOUDY    48  34  57 E9        30.18F
GLENWOOD       CLOUDY    52  37  58 SE10      30.18F
APPLETON       CLOUDY    55  39  54 SE10      30.15F
BENSON         CLOUDY    55  34  44 S10       30.18F
ORTONVILLE     CLOUDY    54  37  54 SE7       30.15F
MADISON        PTSUNNY   59  43  55 SE10      30.15F
WILLMAR        FAIR      52  37  58 SE12      30.20S
$$
MNZ033>034-036-042>043-049>051-058-059-291900-
   Central Minnesota

CITY           SKY/WX    TMP DP  RH WIND       PRES   REMARKS
ST CLOUD       CLOUDY    48  35  60 SE7       30.21F
6HR MIN TEMP:  35; 6HR MAX TEMP:  48;

SAUK CENTRE    FAIR      50  37  61 SE8       30.19F
PAYNESVILLE    CLOUDY    50  33  52 SE8       30.20F
AITKIN         CLOUDY    48  30  49 E6        30.22F
PINE RIVER     CLOUDY    45  32  61 SE6       30.24F
BRAINERD       CLOUDY    45  31  58 SE8       30.22F
STAPLES        CLOUDY    48  30  49 E6        30.20S
LONG PRAIRIE   FAIR      48  34  57 E8        30.20F
LITTLE FALLS   CLOUDY    46  32  57 SE7       30.21F
LITCHFIELD     CLOUDY    52  37  58 SE13        N/A
BUFFALO        CLOUDY    50  35  56 E8        30.22F
MAPLE LAKE     CLOUDY    49  38  64 E6        30.22F
HUTCHINSON     PTSUNNY   52  38  58 SE12      30.21F
$$
MNZ037-044-045-052-053-291900-
   East Central Minnesota

CITY           SKY/WX    TMP DP  RH WIND       PRES   REMARKS
PRINCETON      CLOUDY    48  34  57 NE5       30.23F
MORA           CLOUDY    45  34  65 E6        30.26F
CAMBRIDGE      CLOUDY    50  36  57 E6        30.22F
RUSH CITY      CLOUDY    47  33  58 NE3       30.25F
MOOSE LAKE     CLOUDY    43  32  65 E6        30.24F
CLOQUET        CLOUDY    36  30  80 E12       30.27F
MCGREGOR       CLOUDY    45  32  61 E6        30.24F
$$
MNZ071>073-080-081-089-090-097-098-291900-
   Southwest Minnesota

CITY           SKY/WX    TMP DP  RH WIND       PRES   REMARKS
MONTEVIDEO     CLOUDY    55  39  54 S13       30.17S
GRANITE FALLS  MOSUNNY   57  33  40 E9G18     30.18S
CANBY          CLOUDY    55  39  54 E3        30.16F
MARSHALL       MOSUNNY   53  39  59 SE14G20   30.16F
REDWOOD FALLS  CLOUDY    52  33  48 SE16      30.18S
OLIVIA         CLOUDY    52  32  46 SE14G20   30.18S
PIPESTONE      CLOUDY    48  36  61 SE10      30.12F
WINDOM         CLOUDY    48  37  66 E15       30.16F
WORTHINGTON    CLOUDY    47  39  74 E20       30.13F
JACKSON        CLOUDY    46  39  76 E17       30.14F
TRACY          CLOUDY    50  41  72 SE13      30.16F
SLAYTON        CLOUDY    48  40  75 E13       30.16S
$$
MNZ065>067-074>077-082>085-091>093-291900-
   South Central Minnesota

CITY           SKY/WX    TMP DP  RH WIND       PRES   REMARKS
MANKATO        CLOUDY    47  36  65 SE14      30.20F
NEW ULM        CLOUDY    48  36  61 SE14      30.19F
ST JAMES       PTSUNNY   46  37  71 E8G17     30.20S
FAIRMONT       LGT RAIN  47  39  74 E20G28    30.16F
GLENCOE        CLOUDY    52  39  61 SE13      30.20F
FARIBAULT      CLOUDY    48  37  66 SE12      30.22F
OWATONNA       DRIZZLE   46  37  71 E8        30.21F
WASECA         DRIZZLE   45  37  76 E12G18    30.21F
ALBERT LEA     CLOUDY    46  37  71 E17G23    30.18F
$$
MNZ078>079-086>088-094>096-291900-
   Southeast Minnesota

CITY           SKY/WX    TMP DP  RH WIND       PRES   REMARKS
ROCHESTER      LGT RAIN  45  38  76 E17       30.22F
6HR MIN TEMP:  39; 6HR MAX TEMP:  45; 6HR PCP:  0.01;

RED WING       CLOUDY    48  34  57 SE6       30.24S
STANTON        CLOUDY    49  36  60 SE8       30.22S
DODGE CENTER   LGT RAIN  45  37  76 SE13      30.22S
WINONA         LGT RAIN  43  36  75 SE5       30.26S
AUSTIN         DRIZZLE   45  37  76 E10       30.19F
PRESTON        CLOUDY    43  36  77 E6        30.22S
$$
ABBREVIATIONS USED IN REMARKS
   TC - TEMPERATURES IN CELSIUS
  WCI - WIND CHILL INDEX
   HX - HEAT INDEX
  VSB - VISIBILITY
$$




USA.gov is the U.S. government's official web portal to all federal, state and local government web resources and services.